Flight Track Log - Related Links

Times and Time Zones

All times are in EDT time to prevent confusion due to time zone crossing. See the N946CE flight status page for this flight to view local times or setup timezone preferences in your user account.

Time Position Orientation Groundspeed Altitude Reporting Facility
EDT Latitude Longitude Course Direction KTS MPH feet Rate Location/Type
Sun 03:00:28 PM 35.7831 -84.0414 355° North 153 176 2,700  Level Atlanta Center
Sun 03:01:28 PM 35.7933 -84.0847 286° West 133 153 4,400 1,548 Climbing Atlanta Center
Sun 03:03:00 PM 35.8984 -84.0755 North  Level Estimated
Sun 03:03:34 PM 35.8844 -84.0594 North 169 194 7,500  Level Indianapolis Center
Sun 03:04:36 PM 35.9342 -84.0367 20° North 184 212 9,100 1,622 Climbing Indianapolis Center
Sun 03:06:00 PM 36.2092 -84.0359 355° North  Level FlightAware Approximate
Sun 03:06:00 PM 36.0385 -84.0144 351° North  Level FlightAware Approximate
Sun 03:06:39 PM 36.0450 -83.9919 351° North 192 221 12,500  Level Indianapolis Center
Sun 03:07:28 PM 36.0875 -83.9719 21° North 193 222 13,400 1,321 Climbing Atlanta Center
Sun 03:08:28 PM 36.1439 -83.9461 20° North 198 228 14,900 1,450 Climbing Atlanta Center
Sun 03:09:28 PM 36.2000 -83.9203 20° North 203 234 16,300 1,348 Climbing Atlanta Center
Sun 03:10:46 PM 36.2731 -83.9036 10° North 225 259 18,000 1,243 Climbing Indianapolis Center
Sun 03:11:48 PM 36.3342 -83.9017 North 222 255 19,200 1,258 Climbing Indianapolis Center
Sun 03:12:50 PM 36.4108 -83.8994 North 227 261 20,600 1,210 Climbing Indianapolis Center
Sun 03:13:52 PM 36.4739 -83.8983 North 227 261 21,700 1,016 Climbing Indianapolis Center
Sun 03:14:54 PM 36.5400 -83.9044 356° North 229 264 22,700 634 Climbing Indianapolis Center
Sun 03:15:55 PM 36.6078 -83.9033 North 239 275 23,000 146 Climbing Indianapolis Center
Sun 03:16:57 PM 36.6864 -83.9114 355° North 273 314 23,000  Level Indianapolis Center
Sun 03:17:59 PM 36.7689 -83.9306 349° North 293 337 23,000  Level Indianapolis Center
Sun 03:19:01 PM 36.8517 -83.9289 North 301 346 23,000  Level Indianapolis Center
Sun 03:20:03 PM 36.9369 -83.9103 10° North 308 354 23,000  Level Indianapolis Center
Sun 03:21:04 PM 37.0378 -83.8908 North 311 358 23,000  Level Indianapolis Center
Sun 03:22:06 PM 37.1253 -83.8706 10° North 314 361 23,000  Level Indianapolis Center
Sun 03:23:08 PM 37.2094 -83.8539 North 307 353 23,000  Level Indianapolis Center
Sun 03:24:10 PM 37.2958 -83.8361 North 312 359 23,000  Level Indianapolis Center
Sun 03:25:11 PM 37.3822 -83.8211 North 311 358 23,000  Level Indianapolis Center
Sun 03:26:13 PM 37.4667 -83.8297 355° North 304 350 23,000  Level Indianapolis Center
Sun 03:27:15 PM 37.5508 -83.8411 354° North 303 349 23,000  Level Indianapolis Center
Sun 03:28:17 PM 37.6494 -83.8450 358° North 303 349 23,000  Level Indianapolis Center
Sun 03:29:18 PM 37.7358 -83.8414 North 307 353 23,000  Level Indianapolis Center
Sun 03:30:20 PM 37.8222 -83.8336 North 309 356 23,000  Level Indianapolis Center
Sun 03:31:22 PM 37.9072 -83.8278 North 306 352 23,000  Level Indianapolis Center
Sun 03:32:24 PM 37.9911 -83.8208 North 302 348 23,000  Level Indianapolis Center
Sun 03:33:25 PM 38.0769 -83.8178 North 305 351 23,000  Level Indianapolis Center
Sun 03:34:27 PM 38.1592 -83.8272 355° North 299 344 23,000  Level Indianapolis Center
Sun 03:35:29 PM 38.2564 -83.8328 357° North 300 345 23,000  Level Indianapolis Center
Sun 03:36:30 PM 38.3383 -83.8400 356° North 296 341 23,000  Level Indianapolis Center
Sun 03:37:32 PM 38.4208 -83.8483 355° North 296 341 23,000  Level Indianapolis Center
Sun 03:38:34 PM 38.5044 -83.8528 358° North 299 344 23,000  Level Indianapolis Center
Sun 03:39:35 PM 38.5856 -83.8642 354° North 295 339 23,000  Level Indianapolis Center
Sun 03:40:37 PM 38.6706 -83.8675 358° North 298 343 23,000  Level Indianapolis Center
Sun 03:41:38 PM 38.7522 -83.8764 355° North 293 337 23,000  Level Indianapolis Center
Sun 03:42:40 PM 38.8339 -83.8914 352° North 292 336 23,000  Level Indianapolis Center
Sun 03:43:42 PM 38.9100 -83.9264 340° North 286 329 23,000  Level Indianapolis Center
Sun 03:44:43 PM 38.9878 -83.9567 343° North 288 331 23,000  Level Indianapolis Center
Sun 03:45:45 PM 39.0781 -83.9900 344° North 286 329 23,000  Level Indianapolis Center
Sun 03:46:47 PM 39.1561 -84.0197 344° North 288 331 23,000  Level Indianapolis Center
Sun 03:47:48 PM 39.2317 -84.0547 340° North 286 329 23,000  Level Indianapolis Center
Sun 03:48:50 PM 39.3086 -84.0858 343° North 288 331 23,000  Level Indianapolis Center
Sun 03:49:52 PM 39.3847 -84.1194 341° North 287 330 23,000  Level Indianapolis Center
Sun 03:50:54 PM 39.4608 -84.1517 342° North 286 329 23,000  Level Indianapolis Center
Sun 03:51:55 PM 39.5389 -84.1814 344° North 289 333 23,000  Level Indianapolis Center
Sun 03:52:57 PM 39.6136 -84.2153 341° North 282 325 23,000  Level Indianapolis Center
Sun 03:53:59 PM 39.6900 -84.2433 344° North 282 325 23,000  Level Indianapolis Center
Sun 03:55:01 PM 39.7656 -84.2811 339° North 286 329 23,000  Level Indianapolis Center
Sun 03:56:03 PM 39.8408 -84.3164 340° North 285 328 23,000  Level Indianapolis Center
Sun 03:57:04 PM 39.9264 -84.3556 341° North 277 319 23,000  Level Indianapolis Center
Sun 03:58:06 PM 39.9978 -84.3875 341° North 270 311 23,000  Level Indianapolis Center
Sun 03:59:08 PM 40.0708 -84.4053 349° North 269 310 23,000  Level Indianapolis Center
Sun 04:00:10 PM 40.1478 -84.4033 North 272 313 23,000  Level Indianapolis Center
Sun 04:01:11 PM 40.2231 -84.4017 North 269 310 23,000 -195 Level Indianapolis Center
Sun 04:02:13 PM 40.3033 -84.4033 359° North 280 322 22,600 -484 Descending Indianapolis Center
Sun 04:03:15 PM 40.3844 -84.4058 359° North 287 330 22,000 -581 Descending Indianapolis Center
Sun 04:04:17 PM 40.4625 -84.4025 North 277 319 21,400 -484 Descending Indianapolis Center
Sun 04:05:19 PM 40.5344 -84.4014 North 260 299 21,000 -134 Descending Indianapolis Center
Sun 04:07:16 PM 40.6806 -84.4056 359° North 255 293 21,000  Level Cleveland Center
Sun 04:08:24 PM 40.7642 -84.4086 358° North 258 297 21,000  Level Indianapolis Center
Sun 04:09:25 PM 40.8372 -84.4092 360° North 258 297 21,000  Level Indianapolis Center
Sun 04:10:27 PM 40.9106 -84.4100 360° North 262 302 21,000 -194 Level Indianapolis Center
Sun 04:11:29 PM 40.9861 -84.4092 360° North 268 308 20,600 -683 Descending Indianapolis Center
Sun 04:12:30 PM 41.0656 -84.4064 North 279 321 19,600 -976 Descending Indianapolis Center
Sun 04:13:32 PM 41.1442 -84.4019 North 280 322 18,600 -1,019 Descending Indianapolis Center
Sun 04:14:16 PM 41.2039 -84.4058 357° North 271 312 17,800 -1,038 Descending Cleveland Center
Sun 04:15:16 PM 41.2811 -84.4047 North 271 312 16,800 -1,000 Descending Cleveland Center
Sun 04:16:16 PM 41.3581 -84.4067 359° North 271 312 15,800 -1,050 Descending Cleveland Center
Sun 04:17:16 PM 41.4353 -84.4083 359° North 271 312 14,700 -1,450 Descending Cleveland Center
Sun 04:18:16 PM 41.5139 -84.4269 350° North 276 318 12,900 -1,950 Descending Cleveland Center
Sun 04:19:16 PM 41.5947 -84.4428 352° North 281 323 10,800 -2,150 Descending Cleveland Center
Sun 04:20:16 PM 41.6656 -84.4444 359° North 276 318 8,600 -1,300 Descending Cleveland Center
Sun 04:22:16 PM 41.7806 -84.3761 24° Northeast 223 257 6,900 -636 Descending Cleveland Center
Sun 04:22:47 PM 41.8106 -84.3500 33° Northeast 204 235 7,000 97 Climbing Cleveland Center
Sun 04:23:18 PM 41.8342 -84.3289 34° Northeast 202 232 7,000 -67 Level Cleveland Center
Sun 04:24:16 PM 41.8731 -84.2894 37° Northeast 201 231 6,900  Descending Cleveland Center
Sun 04:25:14 PM 41.9161 -84.2444 38° Northeast 192 221 7,000 50 Climbing Cleveland Center
Sun 04:26:15 PM 41.9572 -84.1994 39° Northeast 184 212 7,000  Level Cleveland Center
Sun 04:27:10 PM 41.9939 -84.1594 39° Northeast 184 212 7,000  Level Cleveland Center
Sun 04:28:12 PM 42.0467 -84.1400 15° North 195 224 7,000  Level Cleveland Center
Sun 04:29:12 PM 42.0894 -84.1006 34° Northeast 190 219 7,000 -198 Level Cleveland Center
Sun 04:30:13 PM 42.1283 -84.0578 39° Northeast 187 215 6,600 -732 Descending Cleveland Center
Sun 04:31:15 PM 42.1711 -84.0181 35° Northeast 181 208 5,500 -1,073 Descending Cleveland Center
Sun 04:32:16 PM 42.2100 -83.9783 37° Northeast 167 192 4,400 -738 Descending Cleveland Center
Sun 04:33:17 PM 42.2489 -83.9297 43° Northeast 180 207 4,000 -197 Descending Cleveland Center
Sun 04:34:18 PM 42.2897 -83.8897 36° Northeast 176 203 4,000  Level Cleveland Center
Sun 04:35:25 PM 42.3325 -83.8472 36° Northeast 170 196 4,000  Level Cleveland Center
Sun 04:36:20 PM 42.3669 -83.8094 39° Northeast 182 209 4,000  Level Cleveland Center
Sun 04:37:22 PM 42.4056 -83.7694 37° Northeast 167 192 4,000  Level Cleveland Center
Sun 04:38:22 PM 42.4422 -83.7317 37° Northeast 160 184 4,000  Level Cleveland Center
Sun 04:39:24 PM 42.4786 -83.6914 39° Northeast 166 191 4,000  Level Cleveland Center
Sun 04:40:25 PM 42.5169 -83.6594 32° Northeast 162 186 4,000  Level Cleveland Center
Sun 04:41:32 PM 42.5617 -83.6278 28° Northeast 162 186 4,000 -393 Level Cleveland Center
Sun 04:42:27 PM 42.6003 -83.5903 36° Northeast 184 212 3,200 -738 Descending Cleveland Center
Sun 04:43:34 PM 42.6308 -83.5353 53° Northeast 171 197 2,500 -516 Descending Cleveland Center
Sun 04:44:35 PM 42.6506 -83.4967 55° Northeast 116 133 2,100 -517 Descending Cleveland Center
Sun 04:45:30 PM 42.6619 -83.4603 67° East 95 109 1,500 -655 Descending Cleveland Center

Login

Don't have an account? Register now (free) for customized features, flight alerts, and more!